This is the latest recevied weather packets stored in our database for station/object N8JE-13. If no packets are shown the sender has not sent any weather packets the latest 10 day(s).
| Time | Temp. | Humidity | Pressure | Rain* | Wind** | Luminosity | Snow |
|---|---|---|---|---|---|---|---|
| 1778177752 | 13.89° C | 50% | 1014.2 hPa | 0 mm | - | - | - |
| 1778177452 | 13.33° C | 47% | 1014.3 hPa | 0 mm | - | - | - |
| 1778177152 | 12.78° C | 49% | 1014.3 hPa | 0 mm | - | - | - |
| 1778176851 | 12.78° C | 48% | 1014.2 hPa | 0 mm | - | - | - |
| 1778176551 | 12.78° C | 47% | 1014.4 hPa | 0 mm | - | - | - |
| 1778176251 | 12.78° C | 47% | 1014.4 hPa | 0 mm | - | - | - |
| 1778175950 | 12.78° C | 46% | 1014.5 hPa | 0 mm | - | - | - |
| 1778175652 | 12.78° C | 49% | 1014.5 hPa | 0 mm | - | - | - |
| 1778175352 | 12.78° C | 49% | 1014.4 hPa | 0 mm | - | - | - |
| 1778175050 | 12.78° C | 49% | 1014.5 hPa | 0 mm | - | - | - |
| 1778174750 | 12.78° C | 51% | 1014.6 hPa | 0 mm | - | - | - |
| 1778174450 | 12.78° C | 51% | 1014.6 hPa | 0 mm | - | - | - |
| 1778174151 | 12.22° C | 50% | 1014.6 hPa | 0 mm | - | - | - |
| 1778173851 | 12.22° C | 49% | 1014.7 hPa | 0 mm | - | - | - |
| 1778173552 | 12.22° C | 49% | 1014.7 hPa | 0 mm | - | - | - |
| 1778173251 | 12.22° C | 50% | 1014.7 hPa | 0 mm | - | - | - |
| 1778172951 | 12.22° C | 49% | 1014.7 hPa | 0 mm | - | - | - |
| 1778172650 | 12.78° C | 49% | 1014.7 hPa | 0 mm | - | - | - |
| 1778172352 | 12.78° C | 50% | 1014.7 hPa | 0 mm | - | - | - |
| 1778172052 | 11.67° C | 51% | 1014.7 hPa | 0 mm | - | - | - |
| 1778171752 | 11.67° C | 50% | 1014.8 hPa | 0 mm | - | - | - |
| 1778171451 | 11.67° C | 52% | 1014.9 hPa | 0 mm | - | - | - |
| 1778171151 | 11.11° C | 50% | 1014.9 hPa | 0 mm | - | - | - |
| 1778170851 | 11.67° C | 51% | 1015 hPa | 0 mm | - | - | - |
| 1778170551 | 11.67° C | 51% | 1015 hPa | 0 mm | - | - | - |
* Rain latest hour (hover to see other rain measurements)
** Current wind speed in m/s (hover to see current wind gust speed)